Total_Precipitation_Accumulation
2.20 2.15 2.14 2.05 2.02 2.04 2.14 2.36 2.61 2.40 1.82 1.39 1.28 1.21 1.18 1.19 1.29 1.20 1.08 1.22 1.21 1.19 1.25 1.29 1.27 1.29 1.34 1.43 1.56 1.69 1.78 1.86 1.94 2.00 2.04 2.11 2.25 2.50
2.05 2.00 1.94 1.90 1.94 1.98 2.04 2.12 2.31 2.42 2.07 1.45 1.23 1.20 1.25 1.25 1.34 1.20 1.13 1.28 1.20 1.15 1.14 1.17 1.19 1.18 1.18 1.22 1.28 1.36 1.45 1.50 1.59 1.76 1.93 2.04 2.13 2.26
1.97 1.93 1.80 1.71 1.78 1.81 1.84 1.88 1.95 2.07 2.01 1.48 1.24 1.22 1.26 1.22 1.21 1.12 1.06 1.04 1.01 1.07 1.03 1.04 1.09 1.11 1.11 1.13 1.19 1.26 1.29 1.34 1.44 1.55 1.71 1.85 1.97 2.01
1.76 1.81 1.76 1.66 1.65 1.68 1.73 1.70 1.65 1.65 1.74 1.57 1.25 1.15 1.13 1.07 1.06 1.06 1.01 0.97 0.91 1.02 1.01 1.00 1.07 1.09 1.07 1.06 1.08 1.15 1.21 1.25 1.31 1.39 1.47 1.55 1.69 1.83
1.57 1.64 1.67 1.70 1.68 1.64 1.62 1.60 1.56 1.55 1.60 1.63 1.35 1.15 1.09 1.04 1.05 1.02 0.98 0.96 0.90 0.99 1.03 1.01 1.01 1.05 1.05 1.05 1.06 1.06 1.10 1.15 1.22 1.30 1.41 1.47 1.54 1.66
1.50 1.57 1.59 1.58 1.53 1.48 1.51 1.47 1.49 1.55 1.55 1.61 1.52 1.33 1.20 1.09 1.12 1.13 1.11 1.00 0.95 0.93 1.06 1.06 1.06 1.05 1.05 1.02 0.98 0.96 0.98 1.07 1.21 1.36 1.49 1.58 1.58 1.60
1.56 1.53 1.54 1.60 1.52 1.46 1.45 1.45 1.48 1.58 1.65 1.69 1.59 1.40 1.26 1.18 1.12 1.04 1.09 1.08 1.03 0.94 0.99 0.98 1.01 1.03 1.04 1.09 1.10 1.09 1.11 1.20 1.34 1.49 1.60 1.67 1.70 1.73
1.52 1.41 1.41 1.52 1.51 1.52 1.49 1.47 1.53 1.63 1.72 1.75 1.64 1.42 1.15 1.05 1.08 1.23 1.35 1.49 1.42 1.01 1.02 1.12 1.16 1.25 1.20 1.16 1.28 1.30 1.30 1.37 1.44 1.51 1.59 1.66 1.68 1.71
1.39 1.31 1.27 1.26 1.36 1.27 1.33 1.41 1.42 1.51 1.58 1.58 1.51 1.23 1.08 1.03 1.25 1.48 1.53 1.54 1.36 1.12 1.28 1.46 1.34 1.29 1.18 1.22 1.40 1.31 1.29 1.31 1.36 1.42 1.46 1.51 1.56 1.58
1.30 1.19 1.16 1.14 1.18 1.29 1.36 1.44 1.34 1.25 1.22 1.16 1.13 1.07 1.06 1.14 1.39 1.67 1.81 1.88 1.63 1.40 1.40 1.55 1.32 1.19 1.10 1.15 1.34 1.29 1.22 1.26 1.32 1.38 1.43 1.46 1.48 1.48
1.33 1.26 1.21 1.13 1.25 1.46 1.52 1.53 1.36 1.18 1.16 1.19 1.23 1.22 1.29 1.35 1.45 1.74 2.02 2.19 1.96 1.47 1.25 1.31 1.24 1.18 1.15 1.13 1.23 1.37 1.31 1.28 1.32 1.37 1.37 1.38 1.45 1.50
1.37 1.32 1.39 1.31 1.40 1.52 1.46 1.48 1.38 1.17 1.09 1.09 1.11 1.12 1.05 1.08 1.29 1.44 1.88 2.35 2.09 1.66 1.18 1.22 1.28 1.44 1.68 1.25 1.10 1.18 1.26 1.32 1.32 1.34 1.37 1.41 1.44 1.41
1.46 1.36 1.33 1.52 1.58 1.60 1.48 1.28 1.27 1.32 1.21 1.12 1.10 1.09 1.06 1.04 1.08 1.12 1.39 2.10 2.46 1.95 1.22 1.56 1.81 1.58 1.78 1.42 1.13 1.13 1.19 1.30 1.39 1.40 1.44 1.48 1.50 1.54
1.40 1.27 1.31 1.55 1.55 1.50 1.39 1.40 1.49 1.41 1.22 1.25 1.24 1.19 1.13 1.09 1.09 1.13 1.18 1.36 1.71 1.86 1.49 1.78 2.24 1.85 1.97 1.67 1.25 1.17 1.23 1.39 1.56 1.57 1.53 1.66 1.64 1.64
1.37 1.44 1.46 1.49 1.44 1.38 1.43 1.44 1.40 1.29 1.33 1.42 1.34 1.20 1.11 1.11 1.16 1.24 1.27 1.27 1.36 1.41 1.41 1.48 1.80 1.83 2.04 1.99 1.54 1.31 1.41 1.49 1.65 1.87 1.85 1.74 1.61 1.59
1.44 1.48 1.45 1.41 1.40 1.40 1.47 1.42 1.30 1.31 1.45 1.48 1.35 1.23 1.20 1.26 1.27 1.34 1.50 1.54 1.65 1.58 1.44 1.37 1.45 1.74 1.88 1.57 1.63 1.59 1.56 1.83 1.88 2.07 2.07 1.85 1.64 1.49
1.50 1.39 1.32 1.31 1.34 1.33 1.28 1.29 1.30 1.37 1.43 1.37 1.39 1.39 1.38 1.46 1.51 1.56 1.73 1.82 1.87 1.64 1.45 1.32 1.30 1.40 1.56 1.63 1.68 1.53 1.58 1.81 1.99 2.12 2.16 2.05 1.83 1.62
1.50 1.40 1.31 1.23 1.23 1.25 1.23 1.23 1.25 1.30 1.37 1.48 1.52 1.53 1.58 1.66 1.73 1.76 1.89 2.01 1.91 1.60 1.38 1.24 1.26 1.42 1.50 1.49 1.51 1.58 1.66 1.85 1.98 2.00 1.91 1.97 1.93 1.66
1.29 1.25 1.22 1.19 1.17 1.17 1.21 1.25 1.27 1.26 1.40 1.61 1.71 1.75 1.82 1.86 1.92 1.95 1.96 1.95 1.79 1.55 1.37 1.26 1.36 1.77 1.87 1.42 1.15 1.34 1.77 1.92 1.87 1.87 1.74 1.67 1.75 1.58
1.18 1.15 1.13 1.12 1.16 1.21 1.26 1.35 1.39 1.40 1.50 1.66 1.76 1.81 1.91 2.04 2.07 1.98 1.87 1.81 1.71 1.51 1.33 1.20 1.26 1.70 2.22 1.95 1.58 1.37 1.49 1.80 1.95 1.94 1.66 1.49 1.52 1.51
1.16 1.13 1.11 1.14 1.20 1.26 1.31 1.39 1.51 1.62 1.69 1.84 1.89 1.89 1.95 2.13 2.11 1.88 1.73 1.65 1.59 1.45 1.31 1.10 1.05 1.31 1.70 1.98 1.85 1.48 1.51 1.65 1.80 2.05 1.97 1.90 1.72 1.52
1.22 1.21 1.19 1.19 1.25 1.31 1.35 1.47 1.60 1.67 1.75 1.84 1.89 1.92 1.97 2.07 2.02 1.76 1.57 1.53 1.45 1.36 1.27 1.12 1.06 1.22 1.57 1.97 1.77 1.41 1.39 1.44 1.45 1.47 1.68 2.03 2.46 2.44
1.28 1.32 1.32 1.32 1.34 1.39 1.44 1.50 1.62 1.69 1.76 1.89 1.92 1.86 1.84 1.80 1.62 1.55 1.48 1.46 1.47 1.40 1.35 1.32 1.25 1.29 1.42 1.54 1.63 1.48 1.33 1.27 1.25 1.38 1.61 1.57 1.59 1.74